• In Romania
  • List of Countries
  • For 7 days
  • Water Temperature
  • Satellite Maps
  • Weather Map
  • Weather Widgets
  • user-avatar
    Login

    Hourly Weather Molodenki

    Today, 20 July, Friday

    Time Temperature Precipitation Wind Pressure Humidity
    00:00 +18°C° 0 mm 2 mps 734 mmHg 96%
    01:00 +18°C° 0 mm 2 mps 734 mmHg 96%
    02:00 +18°C° 0 mm 2 mps 734 mmHg 96%
    03:00 +19°C° 0 mm 1 mps 734 mmHg 96%
    04:00 +18°C° 0 mm 2 mps 734 mmHg 96%
    05:00 +18°C° 0 mm 2 mps 734 mmHg 96%
    06:00 +19°C° 0 mm 2 mps 735 mmHg 96%
    07:00 +20°C° 0 mm 2 mps 735 mmHg 92%
    08:00 +21°C° 0 mm 2 mps 735 mmHg 88%
    09:00 +24°C° 0 mm 3 mps 735 mmHg 85%
    10:00 +25°C° 0.7 mm 3 mps 735 mmHg 81%
    11:00 +26°C° 0.7 mm 3 mps 735 mmHg 78%
    12:00 +27°C° 0.7 mm 4 mps 735 mmHg 74%
    13:00 +27°C° 0.7 mm 4 mps 735 mmHg 72%
    14:00 +28°C° 0.7 mm 4 mps 735 mmHg 71%
    15:00 +28°C° 0.7 mm 4 mps 735 mmHg 69%
    16:00 +28°C° 0.6 mm 3 mps 735 mmHg 73%
    17:00 +27°C° 0.6 mm 3 mps 735 mmHg 76%
    18:00 +27°C° 0.6 mm 2 mps 735 mmHg 79%
    19:00 +26°C° 0.2 mm 2 mps 735 mmHg 82%
    20:00 +24°C° 0.2 mm 2 mps 735 mmHg 85%
    21:00 +23°C° 0.2 mm 2 mps 736 mmHg 88%
    22:00 +21°C° 0 mm 2 mps 736 mmHg 89%
    23:00 +21°C° 0 mm 2 mps 736 mmHg 90%

    Tomorrow, 21 July, Saturday

    Time Temperature Precipitation Wind Pressure Humidity
    00:00 +20°C° 0 mm 2 mps 736 mmHg 91%
    01:00 +20°C° 0.6 mm 2 mps 736 mmHg 92%
    02:00 +20°C° 0.6 mm 2 mps 736 mmHg 93%
    03:00 +20°C° 0.6 mm 2 mps 736 mmHg 94%
    04:00 +20°C° 0.3 mm 2 mps 736 mmHg 94%
    05:00 +20°C° 0.3 mm 2 mps 736 mmHg 94%
    06:00 +20°C° 0.3 mm 2 mps 736 mmHg 94%
    07:00 +21°C° 0.5 mm 2 mps 736 mmHg 90%
    08:00 +24°C° 0.5 mm 2 mps 736 mmHg 87%
    09:00 +25°C° 0.5 mm 3 mps 736 mmHg 83%
    10:00 +26°C° 2.1 mm 3 mps 736 mmHg 80%
    11:00 +26°C° 2.1 mm 3 mps 736 mmHg 77%
    12:00 +27°C° 2.1 mm 3 mps 736 mmHg 74%
    13:00 +28°C° 1 mm 3 mps 736 mmHg 72%
    14:00 +28°C° 1 mm 3 mps 736 mmHg 71%
    15:00 +28°C° 1 mm 2 mps 736 mmHg 69%
    16:00 +28°C° 0.7 mm 3 mps 736 mmHg 73%
    17:00 +27°C° 0.7 mm 3 mps 736 mmHg 77%
    18:00 +27°C° 0.7 mm 3 mps 736 mmHg 81%
    19:00 +26°C° 0.4 mm 3 mps 736 mmHg 85%
    20:00 +24°C° 0.4 mm 3 mps 736 mmHg 88%
    21:00 +22°C° 0.4 mm 3 mps 736 mmHg 91%
    22:00 +22°C° 0 mm 3 mps 736 mmHg 92%
    23:00 +21°C° 0 mm 3 mps 736 mmHg 94%

    Day after tomorrow, 22 July, Sunday

    Time Temperature Precipitation Wind Pressure Humidity
    00:00 +21°C° 0 mm 2 mps 736 mmHg 95%
    01:00 +20°C° 0.1 mm 2 mps 736 mmHg 96%
    02:00 +20°C° 0.1 mm 2 mps 736 mmHg 97%
    03:00 +20°C° 0.1 mm 2 mps 736 mmHg 98%
    04:00 +20°C° 0.4 mm 2 mps 736 mmHg 98%
    05:00 +20°C° 0.4 mm 2 mps 736 mmHg 97%
    06:00 +21°C° 0.4 mm 2 mps 736 mmHg 97%
    07:00 +21°C° 0.1 mm 2 mps 736 mmHg 95%
    08:00 +22°C° 0.1 mm 3 mps 736 mmHg 93%
    09:00 +24°C° 0.1 mm 3 mps 736 mmHg 91%
    10:00 +24°C° 0.5 mm 3 mps 736 mmHg 88%
    11:00 +25°C° 0.5 mm 3 mps 736 mmHg 85%
    12:00 +26°C° 0.5 mm 3 mps 736 mmHg 82%
    13:00 +26°C° 0.6 mm 3 mps 736 mmHg 80%
    14:00 +27°C° 0.6 mm 3 mps 736 mmHg 78%
    15:00 +27°C° 0.6 mm 3 mps 736 mmHg 77%
    16:00 +27°C° 0.8 mm 4 mps 736 mmHg 79%
    17:00 +26°C° 0.8 mm 4 mps 736 mmHg 82%
    18:00 +26°C° 0.8 mm 4 mps 736 mmHg 84%
    19:00 +25°C° 0.6 mm 4 mps 736 mmHg 88%
    20:00 +23°C° 0.6 mm 4 mps 736 mmHg 91%
    21:00 +22°C° 0.6 mm 4 mps 736 mmHg 94%
    22:00 +21°C° 1.1 mm 4 mps 736 mmHg 95%
    23:00 +21°C° 1.1 mm 4 mps 736 mmHg 95%

    23 July, Monday

    Time Temperature Precipitation Wind Pressure Humidity
    00:00 +21°C° 1.1 mm 4 mps 736 mmHg 96%
    01:00 +21°C° 0.2 mm 4 mps 736 mmHg 96%
    02:00 +20°C° 0.2 mm 3 mps 736 mmHg 97%
    03:00 +20°C° 0.2 mm 3 mps 736 mmHg 97%
    04:00 +20°C° 0.6 mm 3 mps 736 mmHg 97%
    05:00 +20°C° 0.6 mm 3 mps 736 mmHg 97%
    06:00 +20°C° 0.6 mm 3 mps 736 mmHg 97%
    07:00 +21°C° 0.1 mm 3 mps 736 mmHg 94%
    08:00 +22°C° 0.1 mm 3 mps 736 mmHg 92%
    09:00 +24°C° 0.1 mm 3 mps 736 mmHg 89%
    10:00 +25°C° 0.5 mm 3 mps 736 mmHg 87%
    11:00 +25°C° 0.5 mm 3 mps 736 mmHg 84%
    12:00 +26°C° 0.5 mm 3 mps 737 mmHg 81%
    13:00 +27°C° 1 mm 3 mps 737 mmHg 80%
    14:00 +27°C° 1 mm 3 mps 737 mmHg 79%
    15:00 +27°C° 1 mm 3 mps 737 mmHg 77%
    16:00 +27°C° 0.7 mm 3 mps 737 mmHg 79%
    17:00 +27°C° 0.7 mm 3 mps 737 mmHg 81%
    18:00 +26°C° 0.7 mm 2 mps 737 mmHg 83%
    19:00 +25°C° 0.3 mm 2 mps 737 mmHg 86%
    20:00 +24°C° 0.3 mm 2 mps 738 mmHg 89%
    21:00 +23°C° 0.3 mm 2 mps 738 mmHg 92%
    22:00 +21°C° 0.1 mm 2 mps 738 mmHg 93%
    23:00 +20°C° 0.1 mm 2 mps 738 mmHg 94%

    24 July, Tuesday

    Time Temperature Precipitation Wind Pressure Humidity
    00:00 +20°C° 0.1 mm 2 mps 738 mmHg 95%
    01:00 +19°C° 0 mm 2 mps 739 mmHg 95%
    02:00 +20°C° 0 mm 1 mps 739 mmHg 95%
    03:00 +20°C° 0 mm 1 mps 739 mmHg 95%
    04:00 +20°C° 0 mm 1 mps 739 mmHg 95%
    05:00 +20°C° 0 mm 1 mps 739 mmHg 94%
    06:00 +20°C° 0 mm 1 mps 740 mmHg 94%
    07:00 +22°C° 0 mm 1 mps 740 mmHg 89%
    08:00 +23°C° 0 mm 1 mps 740 mmHg 85%
    09:00 +24°C° 0 mm 1 mps 740 mmHg 81%
    10:00 +25°C° 0.1 mm 1 mps 740 mmHg 76%
    11:00 +26°C° 0.1 mm 1 mps 740 mmHg 72%
    12:00 +27°C° 0.1 mm 1 mps 741 mmHg 67%
    13:00 +28°C° 0.3 mm 2 mps 741 mmHg 66%
    14:00 +28°C° 0.3 mm 2 mps 741 mmHg 66%
    15:00 +28°C° 0.3 mm 2 mps 740 mmHg 65%
    16:00 +28°C° 0.5 mm 2 mps 741 mmHg 70%
    17:00 +27°C° 0.5 mm 3 mps 741 mmHg 76%
    18:00 +26°C° 0.5 mm 3 mps 741 mmHg 81%
    19:00 +25°C° 0.1 mm 3 mps 741 mmHg 85%
    20:00 +24°C° 0.1 mm 3 mps 741 mmHg 89%
    21:00 +22°C° 0.1 mm 3 mps 741 mmHg 93%
    22:00 +21°C° 0.2 mm 3 mps 742 mmHg 93%
    23:00 +21°C° 0.2 mm 3 mps 742 mmHg 93%

    25 July, Wednesday

    Time Temperature Precipitation Wind Pressure Humidity
    00:00 +20°C° 0.2 mm 3 mps 742 mmHg 94%
    01:00 +20°C° 0.3 mm 3 mps 742 mmHg 93%
    02:00 +20°C° 0.3 mm 3 mps 742 mmHg 93%
    03:00 +20°C° 0.3 mm 3 mps 742 mmHg 93%
    04:00 +19°C° 0.4 mm 2 mps 743 mmHg 93%
    05:00 +19°C° 0.4 mm 2 mps 743 mmHg 92%
    06:00 +20°C° 0.4 mm 1 mps 743 mmHg 92%
    07:00 +20°C° 0.2 mm 2 mps 743 mmHg 90%
    08:00 +20°C° 0.2 mm 3 mps 743 mmHg 89%
    09:00 +20°C° 0.2 mm 4 mps 743 mmHg 87%
    10:00 +20°C° 0.2 mm 4 mps 743 mmHg 87%
    11:00 +20°C° 0.2 mm 4 mps 743 mmHg 86%
    12:00 +20°C° 0.2 mm 5 mps 743 mmHg 85%
    13:00 +19°C° 0.4 mm 5 mps 742 mmHg 86%
    14:00 +19°C° 0.4 mm 5 mps 742 mmHg 86%
    15:00 +19°C° 0.4 mm 5 mps 742 mmHg 87%
    16:00 +19°C° 0.2 mm 5 mps 742 mmHg 87%
    17:00 +20°C° 0.2 mm 5 mps 742 mmHg 87%
    18:00 +20°C° 0.2 mm 5 mps 742 mmHg 88%
    19:00 +20°C° 0.1 mm 5 mps 742 mmHg 89%
    20:00 +20°C° 0.1 mm 4 mps 742 mmHg 91%
    21:00 +20°C° 0.1 mm 4 mps 742 mmHg 93%
    22:00 +19°C° 0 mm 3 mps 743 mmHg 93%
    23:00 +19°C° 0 mm 3 mps 743 mmHg 94%
    Show more